Year,Month,Day,Hour,Minute,Value (Times are PST for temperature in C)
2016,08,19,00,00,21.20
2016,08,19,00,01,21.20
2016,08,19,00,02,21.20
2016,08,19,00,03,21.10
2016,08,19,00,04,21.10
2016,08,19,00,05,21.00
2016,08,19,00,06,20.90
2016,08,19,00,07,20.80
2016,08,19,00,08,20.80
2016,08,19,00,09,20.80
2016,08,19,00,10,20.70
2016,08,19,00,11,20.70
2016,08,19,00,12,20.80
2016,08,19,00,13,20.80
2016,08,19,00,14,20.90
2016,08,19,00,15,21.10
2016,08,19,00,16,21.20
2016,08,19,00,17,21.50
2016,08,19,00,18,21.80
2016,08,19,00,19,22.10
2016,08,19,00,20,22.40
2016,08,19,00,21,22.70
2016,08,19,00,22,22.90
2016,08,19,00,23,23.20
2016,08,19,00,24,23.30
2016,08,19,00,25,23.50
2016,08,19,00,26,23.60
2016,08,19,00,27,23.70
2016,08,19,00,28,23.80
2016,08,19,00,29,23.90
2016,08,19,00,30,24.00
2016,08,19,00,31,24.10
2016,08,19,00,32,24.10
2016,08,19,00,33,24.20
2016,08,19,00,34,24.30
2016,08,19,00,35,24.30
2016,08,19,00,36,24.40
2016,08,19,00,37,24.40
2016,08,19,00,38,24.50
2016,08,19,00,39,24.60
2016,08,19,00,40,24.60
2016,08,19,00,41,24.70
2016,08,19,00,42,24.80
2016,08,19,00,43,24.80
2016,08,19,00,44,24.80
2016,08,19,00,45,24.90
2016,08,19,00,46,25.00
2016,08,19,00,47,25.00
2016,08,19,00,48,25.10
2016,08,19,00,49,25.10
2016,08,19,00,50,25.20
2016,08,19,00,51,25.20
2016,08,19,00,52,25.30
2016,08,19,00,53,25.30
2016,08,19,00,54,25.30
2016,08,19,00,55,25.30
2016,08,19,00,56,25.40
2016,08,19,00,57,25.40
2016,08,19,00,58,25.40
2016,08,19,00,59,25.50
2016,08,19,01,00,25.50
2016,08,19,01,01,25.60
2016,08,19,01,02,25.60
2016,08,19,01,03,25.70
2016,08,19,01,04,25.70
2016,08,19,01,05,25.80
2016,08,19,01,06,25.80
2016,08,19,01,07,25.80
2016,08,19,01,08,25.90
2016,08,19,01,09,25.90
2016,08,19,01,10,25.90
2016,08,19,01,11,25.90
2016,08,19,01,12,25.90
2016,08,19,01,13,26.00
2016,08,19,01,14,26.00
2016,08,19,01,15,26.00
2016,08,19,01,16,26.10
2016,08,19,01,17,26.10
2016,08,19,01,18,26.10
2016,08,19,01,19,26.10
2016,08,19,01,20,26.00
2016,08,19,01,21,26.00
2016,08,19,01,22,26.00
2016,08,19,01,23,26.00
2016,08,19,01,24,26.00
2016,08,19,01,25,26.00
2016,08,19,01,26,26.10
2016,08,19,01,27,26.10
2016,08,19,01,28,26.10
2016,08,19,01,29,26.10
2016,08,19,01,30,26.10
2016,08,19,01,31,26.10
2016,08,19,01,32,26.10
2016,08,19,01,33,26.10
2016,08,19,01,34,26.10
2016,08,19,01,35,26.10
2016,08,19,01,36,26.10
2016,08,19,01,37,26.10
2016,08,19,01,38,26.10
2016,08,19,01,39,26.10
2016,08,19,01,40,26.10
2016,08,19,01,41,26.10
2016,08,19,01,42,26.10
2016,08,19,01,43,26.10
2016,08,19,01,44,26.10
2016,08,19,01,45,26.10
2016,08,19,01,46,26.10
2016,08,19,01,47,26.10
2016,08,19,01,48,26.00
2016,08,19,01,49,26.00
2016,08,19,01,50,26.00
2016,08,19,01,51,26.00
2016,08,19,01,52,26.00
2016,08,19,01,53,26.00
2016,08,19,01,54,25.90
2016,08,19,01,55,25.90
2016,08,19,01,56,25.90
2016,08,19,01,57,25.90
2016,08,19,01,58,25.90
2016,08,19,01,59,25.90
2016,08,19,02,00,25.90
2016,08,19,02,01,25.90
2016,08,19,02,02,25.90
2016,08,19,02,03,25.90
2016,08,19,02,04,25.90
2016,08,19,02,05,25.90
2016,08,19,02,06,26.00
2016,08,19,02,07,26.00
2016,08,19,02,08,26.00
2016,08,19,02,09,26.10
2016,08,19,02,10,26.10
2016,08,19,02,11,26.10
2016,08,19,02,12,26.10
2016,08,19,02,13,26.20
2016,08,19,02,14,26.20
2016,08,19,02,15,26.20
2016,08,19,02,16,26.20
2016,08,19,02,17,26.30
2016,08,19,02,18,26.30
2016,08,19,02,19,26.30
2016,08,19,02,20,26.30
2016,08,19,02,21,26.40
2016,08,19,02,22,26.40
2016,08,19,02,23,26.40
2016,08,19,02,24,26.40
2016,08,19,02,25,26.30
2016,08,19,02,26,26.40
2016,08,19,02,27,26.40
2016,08,19,02,28,26.40
2016,08,19,02,29,26.40
2016,08,19,02,30,26.40
2016,08,19,02,31,26.40
2016,08,19,02,32,26.40
2016,08,19,02,33,26.40
2016,08,19,02,34,26.40
2016,08,19,02,35,26.40
2016,08,19,02,36,26.40
2016,08,19,02,37,26.40
2016,08,19,02,38,26.40
2016,08,19,02,39,26.40
2016,08,19,02,40,26.40
2016,08,19,02,41,26.30
2016,08,19,02,42,26.30
2016,08,19,02,43,26.30
2016,08,19,02,44,26.30
2016,08,19,02,45,26.30
2016,08,19,02,46,26.20
2016,08,19,02,47,26.20
2016,08,19,02,48,26.20
2016,08,19,02,49,26.20
2016,08,19,02,50,26.10
2016,08,19,02,51,26.10
2016,08,19,02,52,26.10
2016,08,19,02,53,26.10
2016,08,19,02,54,26.10
2016,08,19,02,55,26.10
2016,08,19,02,56,26.10
2016,08,19,02,57,26.10
2016,08,19,02,58,26.10
2016,08,19,02,59,26.00
2016,08,19,03,00,26.00
2016,08,19,03,01,25.90
2016,08,19,03,02,25.90
2016,08,19,03,03,25.90
2016,08,19,03,04,25.90
2016,08,19,03,05,25.90
2016,08,19,03,06,25.90
2016,08,19,03,07,25.90
2016,08,19,03,08,25.90
2016,08,19,03,09,25.80
2016,08,19,03,10,25.80
2016,08,19,03,11,25.80
2016,08,19,03,12,25.70
2016,08,19,03,13,25.70
2016,08,19,03,14,25.70
2016,08,19,03,15,25.70
2016,08,19,03,16,25.60
2016,08,19,03,17,25.60
2016,08,19,03,18,25.60
2016,08,19,03,19,25.50
2016,08,19,03,20,25.50
2016,08,19,03,21,25.50
2016,08,19,03,22,25.50
2016,08,19,03,23,25.40
2016,08,19,03,24,25.40
2016,08,19,03,25,25.40
2016,08,19,03,26,25.30
2016,08,19,03,27,25.30
2016,08,19,03,28,25.30
2016,08,19,03,29,25.30
2016,08,19,03,30,25.30
2016,08,19,03,31,25.20
2016,08,19,03,32,25.20
2016,08,19,03,33,25.20
2016,08,19,03,34,25.20
2016,08,19,03,35,25.10
2016,08,19,03,36,25.10
2016,08,19,03,37,25.00
2016,08,19,03,38,24.90
2016,08,19,03,39,24.90
2016,08,19,03,40,24.90
2016,08,19,03,41,24.80
2016,08,19,03,42,24.80
2016,08,19,03,43,24.80
2016,08,19,03,44,24.80
2016,08,19,03,45,24.80
2016,08,19,03,46,24.80
2016,08,19,03,47,24.80
2016,08,19,03,48,24.80
2016,08,19,03,49,24.80
2016,08,19,03,50,24.70
2016,08,19,03,51,24.70
2016,08,19,03,52,24.60
2016,08,19,03,53,24.60
2016,08,19,03,54,24.50
2016,08,19,03,55,24.40
2016,08,19,03,56,24.30
2016,08,19,03,57,24.20
2016,08,19,03,58,24.10
2016,08,19,03,59,24.10
2016,08,19,04,00,24.00
2016,08,19,04,01,23.90
2016,08,19,04,02,23.90
2016,08,19,04,03,23.80
2016,08,19,04,04,23.80
2016,08,19,04,05,23.80
2016,08,19,04,06,23.80
2016,08,19,04,07,23.80
2016,08,19,04,08,23.80
2016,08,19,04,09,23.80
2016,08,19,04,10,23.80
2016,08,19,04,11,23.80
2016,08,19,04,12,23.90
2016,08,19,04,13,23.90
2016,08,19,04,14,23.80
2016,08,19,04,15,23.80
2016,08,19,04,16,23.70
2016,08,19,04,17,23.70
2016,08,19,04,18,23.60
2016,08,19,04,19,23.50
2016,08,19,04,20,23.40
2016,08,19,04,21,23.40
2016,08,19,04,22,23.30
2016,08,19,04,23,23.20
2016,08,19,04,24,23.20
2016,08,19,04,25,23.10
2016,08,19,04,26,23.10
2016,08,19,04,27,23.10
2016,08,19,04,28,23.10
2016,08,19,04,29,23.10
2016,08,19,04,30,23.10
2016,08,19,04,31,23.10
2016,08,19,04,32,23.10
2016,08,19,04,33,23.10
2016,08,19,04,34,23.00
2016,08,19,04,35,23.00
2016,08,19,04,36,22.90
2016,08,19,04,37,22.90
2016,08,19,04,38,22.80
2016,08,19,04,39,22.80
2016,08,19,04,40,22.80
2016,08,19,04,41,22.80
2016,08,19,04,42,22.80
2016,08,19,04,43,22.80
2016,08,19,04,44,22.80
2016,08,19,04,45,22.80
2016,08,19,04,46,22.90
2016,08,19,04,47,22.90
2016,08,19,04,48,22.90
2016,08,19,04,49,22.90
2016,08,19,04,50,22.90
2016,08,19,04,51,23.00
2016,08,19,04,52,23.00
2016,08,19,04,53,23.00
2016,08,19,04,54,23.10
2016,08,19,04,55,23.10
2016,08,19,04,56,23.10
2016,08,19,04,57,23.00
2016,08,19,04,58,23.00
2016,08,19,04,59,23.00
2016,08,19,05,00,22.90
2016,08,19,05,01,22.90
2016,08,19,05,02,22.90
2016,08,19,05,03,22.90
2016,08,19,05,04,22.80
2016,08,19,05,05,22.80
2016,08,19,05,06,22.80
2016,08,19,05,07,22.70
2016,08,19,05,08,22.70
2016,08,19,05,09,22.70
2016,08,19,05,10,22.70
2016,08,19,05,11,22.70
2016,08,19,05,12,22.60
2016,08,19,05,13,22.60
2016,08,19,05,14,22.60
2016,08,19,05,15,22.60
2016,08,19,05,16,22.60
2016,08,19,05,17,22.60
2016,08,19,05,18,22.60
2016,08,19,05,19,22.60
2016,08,19,05,20,22.60
2016,08,19,05,21,22.60
2016,08,19,05,22,22.70
2016,08,19,05,23,22.70
2016,08,19,05,24,22.70
2016,08,19,05,25,22.70
2016,08,19,05,26,22.70
2016,08,19,05,27,22.70
2016,08,19,05,28,22.70
2016,08,19,05,29,22.70
2016,08,19,05,30,22.70
2016,08,19,05,31,22.70
2016,08,19,05,32,22.60
2016,08,19,05,33,22.60
2016,08,19,05,34,22.50
2016,08,19,05,35,22.50
2016,08,19,05,36,22.40
2016,08,19,05,37,22.40
2016,08,19,05,38,22.30
2016,08,19,05,39,22.30
2016,08,19,05,40,22.30
2016,08,19,05,41,22.20
2016,08,19,05,42,22.20
2016,08,19,05,43,22.20
2016,08,19,05,44,22.20
2016,08,19,05,45,22.20
2016,08,19,05,46,22.20
2016,08,19,05,47,22.20
2016,08,19,05,48,22.20
2016,08,19,05,49,22.20
2016,08,19,05,50,22.30
2016,08,19,05,51,22.30
2016,08,19,05,52,22.30
2016,08,19,05,53,22.30
2016,08,19,05,54,22.20
2016,08,19,05,55,22.20
2016,08,19,05,56,22.20
2016,08,19,05,57,22.20
2016,08,19,05,58,22.20
2016,08,19,05,59,22.20
2016,08,19,06,00,22.20
2016,08,19,06,01,22.20
2016,08,19,06,02,22.20
2016,08,19,06,03,22.20
2016,08,19,06,04,22.20
2016,08,19,06,05,22.20
2016,08,19,06,06,22.20
2016,08,19,06,07,22.20
2016,08,19,06,08,22.10
2016,08,19,06,09,22.10
2016,08,19,06,10,22.10
2016,08,19,06,11,22.10
2016,08,19,06,12,22.10
2016,08,19,06,13,22.00
2016,08,19,06,14,22.00
2016,08,19,06,15,22.00
2016,08,19,06,16,22.00
2016,08,19,06,17,22.10
2016,08,19,06,18,22.10
2016,08,19,06,19,22.10
2016,08,19,06,20,22.10
2016,08,19,06,21,22.20
2016,08,19,06,22,22.20
2016,08,19,06,23,22.20
2016,08,19,06,24,22.20
2016,08,19,06,25,22.20
2016,08,19,06,26,22.20
2016,08,19,06,27,22.20
2016,08,19,06,28,22.20
2016,08,19,06,29,22.20
2016,08,19,06,30,22.20
2016,08,19,06,31,22.10
2016,08,19,06,32,22.10
2016,08,19,06,33,22.10
2016,08,19,06,34,22.00
2016,08,19,06,35,22.00
2016,08,19,06,36,21.90
2016,08,19,06,37,21.90
2016,08,19,06,38,21.80
2016,08,19,06,39,21.80
2016,08,19,06,40,21.80
2016,08,19,06,41,21.80
2016,08,19,06,42,21.90
2016,08,19,06,43,21.90
2016,08,19,06,44,21.90
2016,08,19,06,45,21.90
2016,08,19,06,46,21.90
2016,08,19,06,47,22.00
2016,08,19,06,48,21.90
2016,08,19,06,49,21.90
2016,08,19,06,50,21.90
2016,08,19,06,51,21.90
2016,08,19,06,52,21.90
2016,08,19,06,53,21.80
2016,08,19,06,54,21.80
2016,08,19,06,55,21.80
2016,08,19,06,56,21.70
2016,08,19,06,57,21.70
2016,08,19,06,58,21.60
2016,08,19,06,59,21.50
2016,08,19,07,00,21.40
2016,08,19,07,01,21.30
2016,08,19,07,02,21.20
2016,08,19,07,03,21.10
2016,08,19,07,04,21.00
2016,08,19,07,05,20.90
2016,08,19,07,06,20.80
2016,08,19,07,07,20.80
2016,08,19,07,08,20.70
2016,08,19,07,09,20.60
2016,08,19,07,10,20.50
2016,08,19,07,11,20.50
2016,08,19,07,12,20.40
2016,08,19,07,13,20.40
2016,08,19,07,14,20.40
2016,08,19,07,15,20.30
2016,08,19,07,16,20.30
2016,08,19,07,17,20.20
2016,08,19,07,18,20.20
2016,08,19,07,19,20.20
2016,08,19,07,20,20.20
2016,08,19,07,21,20.20
2016,08,19,07,22,20.20
2016,08,19,07,23,20.20
2016,08,19,07,24,20.20
2016,08,19,07,25,20.30
2016,08,19,07,26,20.30
2016,08,19,07,27,20.40
2016,08,19,07,28,20.50
2016,08,19,07,29,20.60
2016,08,19,07,30,20.70
2016,08,19,07,31,20.80
2016,08,19,07,32,20.80
2016,08,19,07,33,20.90
2016,08,19,07,34,21.00
2016,08,19,07,35,21.00
2016,08,19,07,36,21.10
2016,08,19,07,37,21.10
2016,08,19,07,38,21.20
2016,08,19,07,39,21.20
2016,08,19,07,40,21.30
2016,08,19,07,41,21.30
2016,08,19,07,42,21.30
2016,08,19,07,43,21.40
2016,08,19,07,44,21.50
2016,08,19,07,45,21.50
2016,08,19,07,46,21.60
2016,08,19,07,47,21.60
2016,08,19,07,48,21.70
2016,08,19,07,49,21.80
2016,08,19,07,50,21.80
2016,08,19,07,51,21.90
2016,08,19,07,52,21.90
2016,08,19,07,53,22.00
2016,08,19,07,54,22.10
2016,08,19,07,55,22.20
2016,08,19,07,56,22.20
2016,08,19,07,57,22.30
2016,08,19,07,58,22.30
2016,08,19,07,59,22.40
2016,08,19,08,00,22.50
2016,08,19,08,01,22.50
2016,08,19,08,02,22.60
2016,08,19,08,03,22.70
2016,08,19,08,04,22.80
2016,08,19,08,05,22.80
2016,08,19,08,06,22.90
2016,08,19,08,07,23.00
2016,08,19,08,08,23.00
2016,08,19,08,09,23.10
2016,08,19,08,10,23.10
2016,08,19,08,11,23.20
2016,08,19,08,12,23.20
2016,08,19,08,13,23.20
2016,08,19,08,14,23.20
2016,08,19,08,15,23.20
2016,08,19,08,16,23.20
2016,08,19,08,17,23.20
2016,08,19,08,18,23.20
2016,08,19,08,19,23.20
2016,08,19,08,20,23.20
2016,08,19,08,21,23.20
2016,08,19,08,22,23.30
2016,08,19,08,23,23.30
2016,08,19,08,24,23.30
2016,08,19,08,25,23.30
2016,08,19,08,26,23.40
2016,08,19,08,27,23.40
2016,08,19,08,28,23.50
2016,08,19,08,29,23.50
2016,08,19,08,30,23.60
2016,08,19,08,31,23.70
2016,08,19,08,32,23.70
2016,08,19,08,33,23.80
2016,08,19,08,34,23.90
2016,08,19,08,35,24.00
2016,08,19,08,36,24.10
2016,08,19,08,37,24.20
2016,08,19,08,38,24.30
2016,08,19,08,39,24.50
2016,08,19,08,40,24.60
2016,08,19,08,41,24.70
2016,08,19,08,42,24.80
2016,08,19,08,43,24.80
2016,08,19,08,44,24.90
2016,08,19,08,45,25.00
2016,08,19,08,46,25.10
2016,08,19,08,47,25.20
2016,08,19,08,48,25.20
2016,08,19,08,49,25.30
2016,08,19,08,50,25.40
2016,08,19,08,51,25.50
2016,08,19,08,52,25.50
2016,08,19,08,53,25.60
2016,08,19,08,54,25.70
2016,08,19,08,55,25.70
2016,08,19,08,56,25.80
2016,08,19,08,57,25.90
2016,08,19,08,58,25.90
2016,08,19,08,59,25.90
2016,08,19,09,00,25.90
2016,08,19,09,01,26.00
2016,08,19,09,02,26.10
2016,08,19,09,03,26.10
2016,08,19,09,04,26.20
2016,08,19,09,05,26.20
2016,08,19,09,06,26.20
2016,08,19,09,07,26.20
2016,08,19,09,08,26.20
2016,08,19,09,09,26.10
2016,08,19,09,10,26.10
2016,08,19,09,11,26.00
2016,08,19,09,12,26.00
2016,08,19,09,13,25.90
2016,08,19,09,14,25.90
2016,08,19,09,15,25.90
2016,08,19,09,16,25.90
2016,08,19,09,17,25.90
2016,08,19,09,18,26.00
2016,08,19,09,19,26.10
2016,08,19,09,20,26.10
2016,08,19,09,21,26.20
2016,08,19,09,22,26.30
2016,08,19,09,23,26.30
2016,08,19,09,24,26.40
2016,08,19,09,25,26.50
2016,08,19,09,26,26.60
2016,08,19,09,27,26.70
2016,08,19,09,28,26.80
2016,08,19,09,29,26.90
2016,08,19,09,30,26.90
2016,08,19,09,31,27.00
2016,08,19,09,32,27.00
2016,08,19,09,33,27.10
2016,08,19,09,34,27.10
2016,08,19,09,35,27.20
2016,08,19,09,36,27.20
2016,08,19,09,37,27.30
2016,08,19,09,38,27.40
2016,08,19,09,39,27.50
2016,08,19,09,40,27.60
2016,08,19,09,41,27.60
2016,08,19,09,42,27.70
2016,08,19,09,43,27.70
2016,08,19,09,44,27.70
2016,08,19,09,45,27.70
2016,08,19,09,46,27.70
2016,08,19,09,47,27.70
2016,08,19,09,48,27.80
2016,08,19,09,49,27.80
2016,08,19,09,50,27.80
2016,08,19,09,51,27.80
2016,08,19,09,52,27.90
2016,08,19,09,53,27.90
2016,08,19,09,54,27.90
2016,08,19,09,55,27.90
2016,08,19,09,56,27.90
2016,08,19,09,57,27.90
2016,08,19,09,58,27.90
2016,08,19,09,59,27.90
2016,08,19,10,00,27.80
2016,08,19,10,01,27.80
2016,08,19,10,02,27.70
2016,08,19,10,03,27.70
2016,08,19,10,04,27.60
2016,08,19,10,05,27.60
2016,08,19,10,06,27.60
2016,08,19,10,07,27.60
2016,08,19,10,08,27.70
2016,08,19,10,09,27.70
2016,08,19,10,10,27.80
2016,08,19,10,11,27.80
2016,08,19,10,12,27.80
2016,08,19,10,13,27.80
2016,08,19,10,14,27.90
2016,08,19,10,15,27.90
2016,08,19,10,16,28.00
2016,08,19,10,17,28.00
2016,08,19,10,18,28.10
2016,08,19,10,19,28.10
2016,08,19,10,20,28.10
2016,08,19,10,21,28.10
2016,08,19,10,22,28.10
2016,08,19,10,23,28.10
2016,08,19,10,24,28.10
2016,08,19,10,25,28.10
2016,08,19,10,26,28.10
2016,08,19,10,27,28.20
2016,08,19,10,28,28.20
2016,08,19,10,29,28.20
2016,08,19,10,30,28.20
2016,08,19,10,31,28.20
2016,08,19,10,32,28.20
2016,08,19,10,33,28.20
2016,08,19,10,34,28.30
2016,08,19,10,35,28.30
2016,08,19,10,36,28.30
2016,08,19,10,37,28.40
2016,08,19,10,38,28.50
2016,08,19,10,39,28.50
2016,08,19,10,40,28.60
2016,08,19,10,41,28.60
2016,08,19,10,42,28.60
2016,08,19,10,43,28.60
2016,08,19,10,44,28.70
2016,08,19,10,45,28.70
2016,08,19,10,46,28.70
2016,08,19,10,47,28.70
2016,08,19,10,48,28.70
2016,08,19,10,49,28.70
2016,08,19,10,50,28.70
2016,08,19,10,51,28.70
2016,08,19,10,52,28.80
2016,08,19,10,53,28.80
2016,08,19,10,54,28.80
2016,08,19,10,55,28.90
2016,08,19,10,56,28.90
2016,08,19,10,57,28.90
2016,08,19,10,58,28.90
2016,08,19,10,59,29.00
2016,08,19,11,00,29.00
2016,08,19,11,01,29.00
2016,08,19,11,02,29.10
2016,08,19,11,03,29.10
2016,08,19,11,04,29.10
2016,08,19,11,05,29.10
2016,08,19,11,06,29.10
2016,08,19,11,07,29.10
2016,08,19,11,08,29.10
2016,08,19,11,09,29.10
2016,08,19,11,10,29.20
2016,08,19,11,11,29.20
2016,08,19,11,12,29.20
2016,08,19,11,13,29.20
2016,08,19,11,14,29.20
2016,08,19,11,15,29.20
2016,08,19,11,16,29.30
2016,08,19,11,17,29.30
2016,08,19,11,18,29.30
2016,08,19,11,19,29.30
2016,08,19,11,20,29.20
2016,08,19,11,21,29.10
2016,08,19,11,22,29.10
2016,08,19,11,23,29.00
2016,08,19,11,24,28.90
2016,08,19,11,25,28.90
2016,08,19,11,26,28.90
2016,08,19,11,27,28.90
2016,08,19,11,28,28.80
2016,08,19,11,29,28.80
2016,08,19,11,30,28.80
2016,08,19,11,31,28.70
2016,08,19,11,32,28.70
2016,08,19,11,33,28.70
2016,08,19,11,34,28.70
2016,08,19,11,35,28.70
2016,08,19,11,36,28.70
2016,08,19,11,37,28.70
2016,08,19,11,38,28.70
2016,08,19,11,39,28.70
2016,08,19,11,40,28.70
2016,08,19,11,41,28.80
2016,08,19,11,42,28.90
2016,08,19,11,43,28.90
2016,08,19,11,44,29.00
2016,08,19,11,45,29.10
2016,08,19,11,46,29.10
2016,08,19,11,47,29.10
2016,08,19,11,48,29.00
2016,08,19,11,49,29.00
2016,08,19,11,50,29.00
2016,08,19,11,51,28.90
2016,08,19,11,52,28.90
2016,08,19,11,53,28.90
2016,08,19,11,54,28.90
2016,08,19,11,55,28.90
2016,08,19,11,56,28.80
2016,08,19,11,57,28.80
2016,08,19,11,58,28.80
2016,08,19,11,59,28.90
2016,08,19,12,00,28.90
2016,08,19,12,01,29.00
2016,08,19,12,02,29.10
2016,08,19,12,03,29.20
2016,08,19,12,04,29.20
2016,08,19,12,05,29.30
2016,08,19,12,06,29.30
2016,08,19,12,07,29.30
2016,08,19,12,08,29.40
2016,08,19,12,09,29.30
2016,08,19,12,10,29.20
2016,08,19,12,11,29.20
2016,08,19,12,12,29.10
2016,08,19,12,13,29.10
2016,08,19,12,14,29.10
2016,08,19,12,15,29.10
2016,08,19,12,16,29.10
2016,08,19,12,17,29.00
2016,08,19,12,18,29.00
2016,08,19,12,19,29.00
2016,08,19,12,20,29.00
2016,08,19,12,21,29.00
2016,08,19,12,22,29.00
2016,08,19,12,23,29.00
2016,08,19,12,24,29.00
2016,08,19,12,25,29.00
2016,08,19,12,26,29.00
2016,08,19,12,27,29.10
2016,08,19,12,28,29.10
2016,08,19,12,29,29.20
2016,08,19,12,30,29.20
2016,08,19,12,31,29.30
2016,08,19,12,32,29.40
2016,08,19,12,33,29.50
2016,08,19,12,34,29.60
2016,08,19,12,35,29.60
2016,08,19,12,36,29.70
2016,08,19,12,37,29.70
2016,08,19,12,38,29.70
2016,08,19,12,39,29.80
2016,08,19,12,40,29.80
2016,08,19,12,41,29.80
2016,08,19,12,42,29.80
2016,08,19,12,43,29.80
2016,08,19,12,44,29.80
2016,08,19,12,45,29.80
2016,08,19,12,46,29.80
2016,08,19,12,47,29.80
2016,08,19,12,48,29.70
2016,08,19,12,49,29.70
2016,08,19,12,50,29.70
2016,08,19,12,51,29.70
2016,08,19,12,52,29.70
2016,08,19,12,53,29.70
2016,08,19,12,54,29.70
2016,08,19,12,55,29.80
2016,08,19,12,56,29.80
2016,08,19,12,57,29.80
2016,08,19,12,58,29.70
2016,08,19,12,59,29.70
2016,08,19,13,00,29.60
2016,08,19,13,01,29.60
2016,08,19,13,02,29.60
2016,08,19,13,03,29.50
2016,08,19,13,04,29.40
2016,08,19,13,05,29.40
2016,08,19,13,06,29.40
2016,08,19,13,07,29.50
2016,08,19,13,08,29.50
2016,08,19,13,09,29.60
2016,08,19,13,10,29.70
2016,08,19,13,11,29.80
2016,08,19,13,12,29.90
2016,08,19,13,13,30.00
2016,08,19,13,14,30.10
2016,08,19,13,15,30.20
2016,08,19,13,16,30.30
2016,08,19,13,17,30.30
2016,08,19,13,18,30.30
2016,08,19,13,19,30.30
2016,08,19,13,20,30.20
2016,08,19,13,21,30.20
2016,08,19,13,22,30.10
2016,08,19,13,23,30.10
2016,08,19,13,24,30.10
2016,08,19,13,25,30.20
2016,08,19,13,26,30.20
2016,08,19,13,27,30.30
2016,08,19,13,28,30.30
2016,08,19,13,29,30.20
2016,08,19,13,30,30.20
2016,08,19,13,31,30.20
2016,08,19,13,32,30.20
2016,08,19,13,33,30.20
2016,08,19,13,34,30.30
2016,08,19,13,35,30.40
2016,08,19,13,36,30.50
2016,08,19,13,37,30.60
2016,08,19,13,38,30.60
2016,08,19,13,39,30.70
2016,08,19,13,40,30.80
2016,08,19,13,41,30.80
2016,08,19,13,42,30.90
2016,08,19,13,43,30.90
2016,08,19,13,44,30.90
2016,08,19,13,45,30.90
2016,08,19,13,46,31.00
2016,08,19,13,47,31.00
2016,08,19,13,48,31.10
2016,08,19,13,49,31.10
2016,08,19,13,50,31.10
2016,08,19,13,51,31.10
2016,08,19,13,52,31.10
2016,08,19,13,53,31.00
2016,08,19,13,54,31.00
2016,08,19,13,55,30.90
2016,08,19,13,56,30.80
2016,08,19,13,57,30.80
2016,08,19,13,58,30.80
2016,08,19,13,59,30.80
2016,08,19,14,00,30.90
2016,08,19,14,01,30.90
2016,08,19,14,02,31.00
2016,08,19,14,03,31.10
2016,08,19,14,04,31.20
2016,08,19,14,05,31.30
2016,08,19,14,06,31.40
2016,08,19,14,07,31.50
2016,08,19,14,08,31.50
2016,08,19,14,09,31.60
2016,08,19,14,10,31.60
2016,08,19,14,11,31.60
2016,08,19,14,12,31.60
2016,08,19,14,13,31.50
2016,08,19,14,14,31.40
2016,08,19,14,15,31.40
2016,08,19,14,16,31.40
2016,08,19,14,17,31.40
2016,08,19,14,18,31.40
2016,08,19,14,19,31.50
2016,08,19,14,20,31.60
2016,08,19,14,21,31.60
2016,08,19,14,22,31.70
2016,08,19,14,23,31.70
2016,08,19,14,24,31.70
2016,08,19,14,25,31.70
2016,08,19,14,26,31.80
2016,08,19,14,27,31.80
2016,08,19,14,28,31.80
2016,08,19,14,29,31.80
2016,08,19,14,30,31.80
2016,08,19,14,31,31.80
2016,08,19,14,32,31.80
2016,08,19,14,33,31.80
2016,08,19,14,34,31.70
2016,08,19,14,35,31.70
2016,08,19,14,36,31.70
2016,08,19,14,37,31.70
2016,08,19,14,38,31.70
2016,08,19,14,39,31.70
2016,08,19,14,40,31.70
2016,08,19,14,41,31.70
2016,08,19,14,42,31.70
2016,08,19,14,43,31.70
2016,08,19,14,44,31.70
2016,08,19,14,45,31.70
2016,08,19,14,46,31.70
2016,08,19,14,47,31.70
2016,08,19,14,48,31.70
2016,08,19,14,49,31.70
2016,08,19,14,50,31.70
2016,08,19,14,51,31.80
2016,08,19,14,52,31.90
2016,08,19,14,53,32.00
2016,08,19,14,54,32.10
2016,08,19,14,55,32.20
2016,08,19,14,56,32.30
2016,08,19,14,57,32.40
2016,08,19,14,58,32.40
2016,08,19,14,59,32.40
2016,08,19,15,00,32.30
2016,08,19,15,01,32.30
2016,08,19,15,02,32.30
2016,08,19,15,03,32.30
2016,08,19,15,04,32.30
2016,08,19,15,05,32.40
2016,08,19,15,06,32.40
2016,08,19,15,07,32.50
2016,08,19,15,08,32.60
2016,08,19,15,09,32.70
2016,08,19,15,10,32.70
2016,08,19,15,11,32.70
2016,08,19,15,12,32.80
2016,08,19,15,13,32.80
2016,08,19,15,14,32.80
2016,08,19,15,15,32.70
2016,08,19,15,16,32.70
2016,08,19,15,17,32.60
2016,08,19,15,18,32.70
2016,08,19,15,19,32.70
2016,08,19,15,20,32.80
2016,08,19,15,21,32.90
2016,08,19,15,22,33.00
2016,08,19,15,23,33.10
2016,08,19,15,24,33.20
2016,08,19,15,25,33.20
2016,08,19,15,26,33.30
2016,08,19,15,27,33.30
2016,08,19,15,28,33.40
2016,08,19,15,29,33.40
2016,08,19,15,30,33.50
2016,08,19,15,31,33.50
2016,08,19,15,32,33.60
2016,08,19,15,33,33.60
2016,08,19,15,34,33.60
2016,08,19,15,35,33.70
2016,08,19,15,36,33.70
2016,08,19,15,37,33.60
2016,08,19,15,38,33.60
2016,08,19,15,39,33.60
2016,08,19,15,40,33.60
2016,08,19,15,41,33.60
2016,08,19,15,42,33.60
2016,08,19,15,43,33.60
2016,08,19,15,44,33.60
2016,08,19,15,45,33.70
2016,08,19,15,46,33.80
2016,08,19,15,47,33.80
2016,08,19,15,48,33.90
2016,08,19,15,49,34.00
2016,08,19,15,50,34.10
2016,08,19,15,51,34.20
2016,08,19,15,52,34.20
2016,08,19,15,53,34.30
2016,08,19,15,54,34.20
2016,08,19,15,55,34.20
2016,08,19,15,56,34.00
2016,08,19,15,57,33.80
2016,08,19,15,58,33.70
2016,08,19,15,59,33.70
2016,08,19,16,00,33.70
2016,08,19,16,01,33.70
2016,08,19,16,02,33.70
2016,08,19,16,03,33.70
2016,08,19,16,04,33.60
2016,08,19,16,05,33.40
2016,08,19,16,06,33.20
2016,08,19,16,07,33.10
2016,08,19,16,08,33.00
2016,08,19,16,09,32.90
2016,08,19,16,10,32.90
2016,08,19,16,11,32.90
2016,08,19,16,12,32.90
2016,08,19,16,13,32.80
2016,08,19,16,14,32.90
2016,08,19,16,15,32.90
2016,08,19,16,16,32.90
2016,08,19,16,17,32.90
2016,08,19,16,18,32.90
2016,08,19,16,19,32.80
2016,08,19,16,20,32.80
2016,08,19,16,21,32.80
2016,08,19,16,22,32.80
2016,08,19,16,23,32.80
2016,08,19,16,24,32.80
2016,08,19,16,25,32.80
2016,08,19,16,26,32.80
2016,08,19,16,27,32.80
2016,08,19,16,28,32.80
2016,08,19,16,29,32.80
2016,08,19,16,30,32.80
2016,08,19,16,31,32.90
2016,08,19,16,32,33.00
2016,08,19,16,33,33.10
2016,08,19,16,34,33.20
2016,08,19,16,35,33.40
2016,08,19,16,36,33.50
2016,08,19,16,37,33.60
2016,08,19,16,38,33.70
2016,08,19,16,39,33.80
2016,08,19,16,40,33.70
2016,08,19,16,41,33.70
2016,08,19,16,42,33.70
2016,08,19,16,43,33.60
2016,08,19,16,44,33.50
2016,08,19,16,45,33.40
2016,08,19,16,46,33.40
2016,08,19,16,47,33.40
2016,08,19,16,48,33.40
2016,08,19,16,49,33.40
2016,08,19,16,50,33.50
2016,08,19,16,51,33.50
2016,08,19,16,52,33.60
2016,08,19,16,53,33.60
2016,08,19,16,54,33.70
2016,08,19,16,55,33.70
2016,08,19,16,56,33.80
2016,08,19,16,57,33.80
2016,08,19,16,58,33.90
2016,08,19,16,59,34.00
2016,08,19,17,00,34.10
2016,08,19,17,01,34.20
2016,08,19,17,02,34.20
2016,08,19,17,03,34.30
2016,08,19,17,04,34.20
2016,08,19,17,05,34.00
2016,08,19,17,06,33.80
2016,08,19,17,07,33.60
2016,08,19,17,08,33.40
2016,08,19,17,09,33.30
2016,08,19,17,10,33.10
2016,08,19,17,11,32.90
2016,08,19,17,12,32.70
2016,08,19,17,13,32.50
2016,08,19,17,14,32.30
2016,08,19,17,15,32.00
2016,08,19,17,16,31.70
2016,08,19,17,17,31.50
2016,08,19,17,18,31.30
2016,08,19,17,19,31.00